Simultaneous Nadir Overpasses (SNOs) Predictions

Prediction of SNOs between METOP-B and TERRA Satellite Orbit:

Table of predicted SNOs for the next 14.0 days since TLE Epoch: 7/1/2013
Index Date (METOP-B) Time (METOP-B) Lat,Lon (METOP-B) SZA (METOP-B ) Date (TERRA) Time (TERRA) Lat,Lon (TERRA) SZA (TERRA ) Distance(km) Time Diff (sec)
1 07/03/2013 19:51:58 81.29, -71.16 61.17 07/03/2013 19:51:59 81.29, -71.00 61.18 2.73 1
2 07/03/2013 20:42:36 -81.31, 97.12 118.72 07/03/2013 20:41:25 -81.31, 97.03 118.76 1.55 71
3 07/06/2013 14:35:39 -81.29,-172.09 118.59 07/06/2013 14:36:46 -81.29,-172.13 118.56 0.80 67
4 07/06/2013 15:26:19 81.30, -4.35 61.47 07/06/2013 15:26:12 81.29, -4.52 61.44 2.99 7
5 07/09/2013 10:10:01 -81.29,-105.66 118.29 07/09/2013 10:10:59 -81.29,-105.75 118.27 1.64 58
6 07/09/2013 11:00:41 81.30, 62.02 61.77 07/09/2013 11:00:24 81.31, 62.21 61.79 3.28 17
7 07/12/2013 05:44:23 -81.29, -39.27 117.93 07/12/2013 05:45:11 -81.30, -39.12 117.89 2.59 48
8 07/12/2013 06:35:03 81.30, 128.36 62.11 07/12/2013 06:34:37 81.30, 128.44 62.11 1.35 26
9 07/15/2013 01:18:43 -81.30, 27.47 117.48 07/15/2013 01:19:22 -81.30, 27.38 117.47 1.62 39




NCC Satellite Simultaneous Nadir Overpasses (SNOs) Prediction Service
